Location: Applecreek Village
(41.3528°N, 81.4956°W)
Time: 05:01:28
(UTC+00:00)

Envisat - Visible Passes

Search period start: 14 October 2024 00:00
Search period end: 24 October 2024 00:00
Orbit: 762 x 764 km, 98.3° (Epoch: 13 October)

Date Brightness Start Highest point End Pass type
(mag) Time Alt. Az. Time Alt. Az. Time Alt. Az.
14 Oct 6.0 07:34:37 10° NE 07:34:49 11° NE 07:34:49 11° NE visible
14 Oct 4.6 09:12:52 10° N 09:14:57 23° NNW 09:14:57 23° NNW visible
15 Oct 5.0 08:35:10 10° NNE 08:36:53 22° NNE 08:36:53 22° NNE visible
15 Oct 5.0 10:16:24 10° NW 10:17:02 11° NW 10:17:02 11° NW visible
16 Oct 5.7 07:57:59 10° NNE 07:58:49 14° NE 07:58:49 14° NE visible
16 Oct 4.8 09:37:16 10° N 09:38:58 18° NNW 09:38:58 18° NNW visible
17 Oct 4.8 08:59:14 10° N 09:00:53 21° N 09:00:53 21° N visible
18 Oct 5.4 08:21:42 10° NNE 08:22:49 17° NNE 08:22:49 17° NNE visible
18 Oct 5.0 10:02:04 10° NNW 10:02:57 13° NNW 10:02:57 13° NNW visible
19 Oct 4.9 09:23:30 10° N 09:24:53 18° NNW 09:24:53 18° NNW visible
20 Oct 5.2 08:45:39 10° N 08:46:49 17° N 08:46:49 17° N visible
21 Oct 5.7 08:08:18 10° NNE 08:08:43 12° NNE 08:08:43 12° NNE visible
21 Oct 5.1 09:48:02 10° NNW 09:48:52 13° NNW 09:48:52 13° NNW visible
22 Oct 5.1 09:09:47 10° N 09:10:47 16° N 09:10:47 16° N visible
23 Oct 5.5 08:32:07 10° NNE 08:32:43 13° NNE 08:32:43 13° NNE visible
